Location: Alvediston
(51.0078°N, 2.0364°W)
Time: 11:42:19
(UTC+00:00)

STARLINK-51 - Pass Details

Date: 27 February 2020
Orbit: 529 x 530 km, 53.0° (Epoch: 09 April)

Event Time Altitude Azimuth Distance (km) Brightness Sun altitude
Rises 19:28:34 0° 279° (W) 2,670 8.9 -17.1°
Reaches altitude 10° 19:30:48 10° 282° (WNW) 1,780 7.5 -17.4°
Maximum altitude 19:34:49 66° 5° (N) 582 3.7 -18.0°
Enters shadow 19:36:01 42° 72° (ENE) 769 3.9 -18.2°
